Flag Weather past 2 weeks in Yarmouth County, Nova Scotia, Canada

Now
41 °F

Passing clouds.


Feels Like: 41 °F
Forecast: 42 / 53 °F
Wind: 2 mph from East

Location: Yarmouth

Current Time: Oct 31, 2014 at 2:43:13 AM

Latest Report: Oct 31, 2014 at 2:00 AM


Visibility: 15 mi

Pressure: 29.95 "Hg

Humidity: 93%

Dew point: 39 °F

Location of Yarmouth CountyLocation

Historic Weather in Yarmouth County — Graph

°F

Yarmouth County temperature yesterday

Maximum temperature yesterday: 59 °F (at 12:00 AM)
Minimum temperature yesterday: 48 °F (at 8:00 PM)
Average temperature yesterday: 53 °F

Past Weeks' High & Low Weather Summary

 TemperatureHumidityPressure
High70 °F (Oct 16, 11:00 AM)100% (Oct 16, 1:00 AM)30.15 "Hg (Oct 16, 1:00 AM)
Low39 °F (Oct 21, 7:00 AM)61% (Oct 20, 10:00 AM)29.33 "Hg (Oct 26, 2:00 PM)
Average54 °F88%29.79 "Hg
* Reported Oct 16 1:00 AM — Oct 31 1:00 AM, Yarmouth County, Weather by CustomWeather, © 2014

Note: Actual official high and low records may vary slightly from our data, if they occured in-between our weather recording intervals... More about our weather records

Advertising

Yarmouth County weather history for previous 24 hours

 ConditionsComfort  
Time TempWeatherWind HumidityBarometerVisibility
1:00 AM
Oct 31
46 °FPassing clouds.5 mph82%29.94 "Hg15 mi
12:00 AM45 °FPassing clouds.7 mph81%29.93 "Hg15 mi
11:00 PM
Oct 30
48 °FPassing clouds.6 mph76%29.93 "Hg15 mi
10:00 PM48 °FPassing clouds.6 mph82%29.92 "Hg15 mi
9:00 PM48 °FPassing clouds.5 mph76%29.91 "Hg15 mi
8:00 PM48 °FPassing clouds.3 mph76%29.92 "Hg15 mi
7:00 PM50 °FPartly sunny.5 mph71%29.90 "Hg15 mi
6:00 PM50 °FScattered clouds.6 mph71%29.88 "Hg15 mi
3:00 PM55 °FPartly sunny.12 mph63%29.85 "Hg15 mi
2:00 PM55 °FPartly sunny.12 mph63%29.85 "Hg15 mi
1:00 PM55 °FBroken clouds.10 mph67%29.86 "Hg15 mi
12:00 PM55 °FBroken clouds.13 mph67%29.86 "Hg15 mi
11:00 AM54 °FMostly cloudy.9 mph72%29.86 "Hg15 mi
10:00 AM52 °FMore clouds than sun.6 mph82%29.85 "Hg12 mi
9:00 AM52 °FMostly cloudy.3 mph88%29.84 "Hg12 mi
8:00 AM50 °FSprinkles. Low clouds.5 mph94%29.82 "Hg9 mi
7:00 AM50 °FDrizzle. Overcast.12 mph94%29.81 "Hg12 mi
6:00 AM50 °FOvercast.7 mph100%29.81 "Hg9 mi
5:00 AM52 °FSprinkles. Low clouds.14 mph94%29.79 "Hg9 mi
4:00 AM55 °FLow clouds.9 mph94%29.78 "Hg9 mi
3:00 AM55 °FFog.9 mph100%29.79 "Hg2 mi
2:00 AM55 °FFog.9 mph100%29.78 "Hg2 mi
Weather by CustomWeather, © 2014

See weather overviewHow to use our weather pages